Regional Weather Roundup
Issued by NWS

Home | Current Version | Previous Version | Graphics & Text | Print | Product List | Glossary On
Versions: 1 2 3 4 5 6 7 8 9 10 11 12 13 14 15 16 17 18 19 20 21 22 23 24 25 26 27 28 29 30 31 32 33 34 35 36 37 38 39 40 41 42 43 44 45 46 47 48 49 50
240
ASUS43 KBIS 302302
RWRND

NORTH DAKOTA REGIONAL WEATHER ROUNDUP
NATIONAL WEATHER SERVICE BISMARCK ND
600 PM CDT SUN APR 30 2017

NOTE: "FAIR" INDICATES FEW OR NO CLOUDS BELOW 12,000 FEET WITH NO
SIGNIFICANT WEATHER AND/OR OBSTRUCTIONS TO VISIBILITY.


NDZ001>003-009>011-017-010000-
NORTHWEST NORTH DAKOTA

CITY           SKY/WX    TMP DP  RH WIND       PRES   REMARKS
WILLISTON      CLOUDY    67  24  19 SW12      29.81F
MINOT          FAIR      67  21  17 SE10      29.85F
MINOT AFB      SUNNY     66  21  18 SW10      29.84F
$$

NDZ018>021-031>035-040>046-010000-
SOUTHWEST NORTH DAKOTA

CITY           SKY/WX    TMP DP  RH WIND       PRES   REMARKS
BISMARCK       FAIR      65  24  21 SE3       29.87F
DICKINSON      FAIR      61  11  14 VRB3      29.84F
GARRISON         N/A     64  16  15 S7        29.86F
HETTINGER ARPT SUNNY     62  20  19 N6        29.87F
$$

NDZ004>008-012>016-024-026-027-054-010000-
NORTHEAST NORTH DAKOTA

CITY           SKY/WX    TMP DP  RH WIND       PRES   REMARKS
GRAND FORKS    PTSUNNY   63  26  24 E14       29.89F
GRND FRKS AFB  CLOUDY    61  25  25 E9        29.90F
DEVILS LAKE    FAIR      60  26  27 SE8       29.92F
$$

NDZ022-023-025-028>030-036>039-047>053-010000-
SOUTHEAST NORTH DAKOTA

CITY           SKY/WX    TMP DP  RH WIND       PRES   REMARKS
FARGO          CLOUDY    61  18  18 E15       29.86F
JAMESTOWN      FAIR      59  25  27 NE10      29.86F
$$





USA.gov is the U.S. government's official web portal to all federal, state and local government web resources and services.